Wetterdaten: Januar 2012
Datum Temp Feuchte Luftdruck Regen Wind Richtung Sonnenschein UV Solar Windben
01.01.2012 10,0 C 98 % 1007,9 hPa 10,0 l/m 9,8 km/h S-SW 0,00 h 0,0 UV-I 24 W/m 21,3 km/h
02.01.2012 5,3 C 95 % 1009,7 hPa 11,2 l/m 7,1 km/h S-SW 0,00 h 0,0 UV-I 41 W/m 24,5 km/h
03.01.2012 5,5 C 88 % 1006,4 hPa 6,0 l/m 18,5 km/h S 0,58 h 0,0 UV-I 35 W/m 37,4 km/h
04.01.2012 3,6 C 87 % 1008,7 hPa 5,0 l/m 21,0 km/h S-SW 0,00 h 0,0 UV-I 28 W/m 35,8 km/h
05.01.2012 2,8 C 91 % 990,5 hPa 18,8 l/m 19,0 km/h S-SW 0,17 h 0,5 UV-I 31 W/m 40,2 km/h
06.01.2012 3,2 C 97 % 1015,6 hPa 4,0 l/m 15,2 km/h NW 0,08 h 0,5 UV-I 47 W/m 27,8 km/h
07.01.2012 4,2 C 96 % 1012,9 hPa 11,2 l/m 15,4 km/h S-SW 0,00 h 0,5 UV-I 37 W/m 31,8 km/h
08.01.2012 3,4 C 97 % 1019,2 hPa 9,0 l/m 7,2 km/h NW 0,00 h 0,5 UV-I 23 W/m 21,0 km/h
09.01.2012 5,3 C 98 % 1024,8 hPa 6,2 l/m 8,4 km/h W 0,00 h 0,0 UV-I 18 W/m 21,0 km/h
10.01.2012 4,9 C 92 % 1031,5 hPa 0,6 l/m 1,0 km/h N-NW 0,00 h 0,5 UV-I 39 W/m 13,7 km/h
11.01.2012 6,3 C 96 % 1030,1 hPa 2,8 l/m 4,0 km/h SW 0,00 h 0,5 UV-I 23 W/m 25,0 km/h
12.01.2012 4,5 C 96 % 1019,5 hPa 7,6 l/m 11,2 km/h SW 0,67 h 0,6 UV-I 61 W/m 27,8 km/h
13.01.2012 2,5 C 91 % 1023,1 hPa 2,2 l/m 5,9 km/h N-NW 0,25 h 0,6 UV-I 48 W/m 22,5 km/h
14.01.2012 1,6 C 95 % 1025,8 hPa 0,2 l/m 2,8 km/h NW 0,08 h 0,5 UV-I 42 W/m 6,0 km/h
15.01.2012 -1,5 C 91 % 1026,7 hPa 0,0 l/m 0,7 km/h N-NO 2,67 h 0,6 UV-I 107 W/m 2,0 km/h
16.01.2012 -2,6 C 89 % 1028,6 hPa 0,2 l/m 0,2 km/h O 5,33 h 0,7 UV-I 163 W/m 1,2 km/h
17.01.2012 -3,0 C 85 % 1030,1 hPa 0,0 l/m 0,2 km/h O 4,32 h 0,7 UV-I 130 W/m 1,2 km/h
18.01.2012 1,4 C 88 % 1025,0 hPa 6,0 l/m 3,5 km/h S-SW 4,50 h 0,7 UV-I 126 W/m 12,5 km/h
19.01.2012 3,6 C 97 % 1013,2 hPa 21,0 l/m 4,6 km/h W 0,00 h 0,0 UV-I 21 W/m 14,9 km/h
20.01.2012 1,3 C 95 % 1012,2 hPa 4,4 l/m 14,0 km/h W 0,42 h 0,5 UV-I 56 W/m 29,3 km/h
21.01.2012 4,1 C 95 % 1002,8 hPa 14,4 l/m 9,9 km/h W 0,00 h 0,0 UV-I 17 W/m 26,5 km/h
22.01.2012 3,3 C 95 % 1004,7 hPa 10,6 l/m 15,5 km/h SW 0,00 h 0,0 UV-I 24 W/m 34,6 km/h
23.01.2012 1,8 C 97 % 1012,6 hPa 4,2 l/m 7,8 km/h W 0,00 h 0,6 UV-I 44 W/m 22,9 km/h
24.01.2012 1,4 C 98 % 1020,5 hPa 0,4 l/m 0,8 km/h NW 0,00 h 0,6 UV-I 38 W/m 6,0 km/h
25.01.2012 -0,9 C 96 % 1022,6 hPa 0,0 l/m 10,5 km/h S-SO 2,00 h 0,6 UV-I 108 W/m 18,1 km/h
26.01.2012 -0,3 C 85 % 1019,0 hPa 0,0 l/m 21,9 km/h S-SO 5,50 h 0,8 UV-I 169 W/m 31,4 km/h
27.01.2012 -0,1 C 97 % 1024,0 hPa 2,2 l/m 1,5 km/h S-SO 0,67 h 0,5 UV-I 65 W/m 5,2 km/h
28.01.2012 -1,0 C 95 % 1029,0 hPa 0,0 l/m 0,4 km/h S-SO 0,00 h 0,5 UV-I 40 W/m 4,0 km/h
29.01.2012 -4,2 C 93 % 1029,4 hPa 0,0 l/m 3,0 km/h N-NO 0,00 h 0,0 UV-I 40 W/m 11,3 km/h
30.01.2012 -4,8 C 84 % 1027,7 hPa 0,0 l/m 1,4 km/h O-SO 2,83 h 0,7 UV-I 119 W/m 5,6 km/h
31.01.2012 -7,6 C 80 % 1028,8 hPa 0,0 l/m 4,9 km/h O-NO 6,42 h 0,8 UV-I 179 W/m 17,7 km/h
Min-Datum 31.01.12 16.01.12 05.01.12 23 Tage 01.01.12 - - - - 01.01.12
Min-Zeit 23:55 13:50 12:30 - 13:40 - - - - 13:40
Minimum -10,1 C 56 % 983,4 hPa - 0,0 km/h - - - - 0,0 km/h
Max-Datum 02.01.12 07.01.12 10.01.12 19.01.12 03.01.12 - 31.01.12 31.01.12 25.01.12 20.01.12
Max-Zeit 02:05 13:00 10:35 11:00 19:25 - 15:50 12:20 11:30 02:30
Maximum 12,3 C 100 % 1032,5 hPa 21,0 l/m 44,5 km/h
S
- 6,33 h 1,1 UV-I 330 W/m 77,2 km/h
W
Durchschnitt 1,7 C 93 % 1018,8 hPa #158,2 l/m 8,0 km/h S-SW #36:29 h 0,6 UV-I 63 W/m 19,4 km/h

Durchschnitt Minimum Temp.-0,1 C
Durchschnitt Maximum Temp.4,0 C